Location: St. Louis
(38.6270°N, 90.1994°W)
Time: 07:40:35
(UTC-06:00)

deb Explorer IX - Pass Details

Date: 07 December 2021
Orbit: 544 x 1082 km, 38.8° (Epoch: 19 January)

Event Time Altitude Azimuth Distance (km) Brightness Sun altitude
Rises 11:20:53 0° 274° (W) 3,042 ? 28.2°
Reaches altitude 10° 11:23:24 10° 274° (W) 2,046 ? 28.3°
Maximum altitude 11:28:04 89° 360° (N) 596 ? 28.4°
Drops below altitude 10° 11:32:16 10° 95° (E) 1,840 ? 28.5°
Sets 11:34:26 0° 96° (E) 2,708 ? 28.5°
